Regional Weather Roundup
Issued by NWS Newport/Morehead, NC

Home | Current Version | Previous Version | Text Only | Print | Product List | Glossary On
Versions: 1 2 3 4 5 6 7 8 9 10 11 12 13 14 15 16 17 18 19 20 21 22 23 24 25 26 27 28 29 30 31 32 33 34 35 36 37 38 39 40 41 42 43 44 45 46 47 48 49 50
000
ASUS42 KMHX 030210
RWRMHX
WEATHER ROUNDUP FOR EASTERN NORTH CAROLINA
NATIONAL WEATHER SERVICE NEWPORT/MOREHEAD CITY NC
1000 PM EDT TUE SEP 02 2014

NOTE: "FAIR" INDICATES FEW OR NO CLOUDS BELOW 12,000 FEET
WITH NO SIGNIFICANT WEATHER AND/OR OBSTRUCTIONS TO VISIBILITY

NCZ015>017-031-032-045>047-102-103-030300-
NORTH COAST

CITY           SKY/WX    TMP DP  RH WIND       PRES   REMARKS
EDENTON        CLEAR     82  76  82 SW12      29.98S
ELIZABETH CITY CLEAR     82  75  79 S12       29.97S
KITTY HAWK     CLEAR     82  76  82 SW8       29.98S
MANTEO         CLEAR     81  76  84 SW14      30.00R

$$

NCZ045>047-081-094-103-104-030300-
CENTRAL COAST

CITY           SKY/WX    TMP DP  RH WIND       PRES   REMARKS
FRISCO         CLEAR     80  77  90 SW15G23   30.02S
SWANQUARTER      N/A     82 N/A N/A SW12G24   29.97S

$$

NCZ095-097-098-100-101-030300-
SOUTHERN COAST

CITY           SKY/WX    TMP DP  RH WIND       PRES   REMARKS
BEAUFORT       PTCLDY    82  77  84 SW14      30.02F
CEDAR ISLAND     N/A     81 N/A N/A S6G14     30.06S
JACKSONVILLE   CLOUDY    80  74  81 SW6       30.02R
NEWPORT        NOT AVBL
PINEY ISLAND   CLEAR     81  78  91 SW8       30.01S
WILMINGTON     MOCLDY    80  75  84 S7        30.02R


$$

NCZ011>013-027>030-043-044-078>080-089-090>093-098-030300-
COASTAL PLAIN

CITY           SKY/WX    TMP DP  RH WIND       PRES   REMARKS
AHOSKIE        CLEAR     78  70  77 S5        29.98R
CLINTON        MOCLDY    80  76  89 S3        30.02S
ELIZABETHTOWN  MOCLDY    80  75  84 SE3       30.02R
GOLDSBORO      MOCLDY    77  76  98 SW3       29.99R
GREENVILLE     PTCLDY    77  75  94 SW3       30.01S
HAVELOCK       PTCLDY    80  75  84 SW7       30.03R
KENANSVILLE    CLOUDY    79  73  82 CALM      30.02F
KINSTON        MOCLDY    82  75  78 S8        30.01S
NEW BERN       MOCLDY    81  75  82 SW6       30.03R
RICHLANDS      CLOUDY    79  72  78 SW6       30.03R
ROANOKE RAPIDS NOT AVBL
ROCKY MOUNT    CLEAR     74  70  87 S5        30.00R
WASHINGTON     PTCLDY    80  75  84 S6        30.01S
WHITEVILLE     MOCLDY    80  75  86 S5        30.01R

$$

AMZ130-135-150-152-154-156-158-170-250-252-270-ANZ085-086-088-633-658-670-030300-
MARINE OBSERVATIONS

STATION/POSITION TIME  TEMP    WIND        PRES    WAVE   SWELL
                       AIR SEA DIR/SP/G            HT/PER HT/PER
                 (UTC) (F)     (DEG/KT/KT) (MB)    (FT/S) (FT/S)
CHESAPEAKE LIGHT 0100   86     210/ 19/ 20 1013.9
BUOY 44014       0200   80 78  210/ 17/ 19 1014.3    4/ 4   2/ 9
DUCK             0200   83 75  200/ 14/ 20 1014.3
2E DUCK          0200                        N/A     2/12   2/12
OREGON INLET     0200   82 85  210/ 19/ 22 1015.6
BUOY 44095       0200      80                N/A     4/ 5   2/11
20E OREGON INLET NOT AVBL
HATTERAS CG      0200   81 84  230/ 11/ 18 1017.0
DIAMOND BUOY     0200   81     210/ 17/ 21 1016.4    4/ 5   2/10
CAPE LOOKOUT     0100   81     220/ 12/ 14 1016.7
BEAUFORT LAB     0200   82 84  220/ 10/ 15 1016.1
30 SE NEW RIVER  0200   82 82  210/ 16/ 17 1017.0    3/ 4   2/ 9
5 SE WRIGHTSVILL NOT AVBL
BUOY 41002       0137   81 83  220/ 10/ 12 1019.6    3/12   3/12
BUOY 41004       0200   82 84  180/ 12/ 14 1016.6    2/ 9   2/ 9

$$


USA.gov is the U.S. government's official web portal to all federal, state and local government web resources and services.